Flag for Micronesia Weather past 2 weeks in Palikir, Ponape, Micronesia

Now
84 °F

Cloudy.


Feels Like: 93 °F
Forecast: 79 / 86 °F
Wind: 10 mph from Northeast

Location: Pohnpei


UV Index: 10 (Very high)

Visibility: 15 mi


Pressure: 29.86 "Hg

Humidity: 78%

Dew point: 76 °F

Location of PalikirLocation

Historic Weather in Palikir

°F

Palikir temperature yesterday

Maximum temperature yesterday: 88 °F (at 2:52 PM)
Minimum temperature yesterday: 76 °F (at 12:53 AM)
Average temperature yesterday: 82 °F

Past Weeks' High & Low Weather Summary

 TemperatureHumidityPressure
High91 °F (Apr 16, 1:50 PM)98% (Apr 13, 3:55 AM)29.98 "Hg (Apr 13, 3:55 AM)
Low74 °F (Apr 15, 3:54 AM)60% (Apr 19, 4:54 PM)29.75 "Hg (Apr 9, 2:50 PM)
Average81 °F85%29.83 "Hg
* Reported Apr 5 7:51 AM — Apr 20 7:51 AM, Palikir, Weather by CustomWeather, © 2014

Note: Actual official high and low records may vary slightly from our data, if they occured in-between our weather recording intervals... More about our weather records

Advertising

Historic Weather Conditions — Data for Previous 24 hours

 ConditionsComfort  
Time TempWeatherWind HumidityBarometerVisibility
7:51 AM
Apr 20
83 °FCloudy.8 mph79%29.85 "Hg15 mi
6:50 AM83 °FBroken clouds.7 mph77%29.98 "Hg15 mi
5:52 AM82 °FPartly cloudy.6 mph81%29.82 "Hg15 mi
4:55 AM82 °FPartly cloudy.6 mph79%29.80 "Hg15 mi
3:55 AM82 °FPartly cloudy.6 mph81%29.80 "Hg15 mi
2:57 AM79 °FPartly cloudy.5 mph85%29.80 "Hg15 mi
1:51 AM81 °FPartly cloudy.6 mph83%29.81 "Hg15 mi
12:51 AM81 °FPartly cloudy.5 mph84%29.83 "Hg15 mi
11:55 PM
Apr 19
81 °FPartly cloudy.5 mph79%29.83 "Hg15 mi
10:54 PM81 °FPartly cloudy.6 mph83%29.85 "Hg15 mi
9:54 PM81 °FOvercast.3 mph79%29.85 "Hg15 mi
8:54 PM81 °FMostly cloudy.9 mph83%29.84 "Hg15 mi
7:52 PM81 °FOvercast.12 mph83%29.83 "Hg15 mi
6:53 PM82 °FMostly cloudy.5 mph79%29.83 "Hg15 mi
5:52 PM84 °FMore clouds than sun.6 mph77%29.80 "Hg15 mi
4:54 PM85 °FCloudy.9 mph60%29.80 "Hg15 mi
3:51 PM87 °FMore clouds than sun.7 mph72%29.79 "Hg15 mi
2:52 PM88 °FMore clouds than sun.7 mph69%29.79 "Hg15 mi
1:51 PM87 °FMore clouds than sun.7 mph69%29.80 "Hg15 mi
12:55 PM86 °FMostly cloudy.7 mph74%29.83 "Hg15 mi
11:53 AM85 °FMore clouds than sun.7 mph76%29.86 "Hg15 mi
10:54 AM85 °FCloudy.5 mph78%29.88 "Hg15 mi
9:53 AM85 °FCloudy.5 mph75%29.90 "Hg15 mi
Weather by CustomWeather, © 2014

See weather overview